GFSFLT2_925_thetae_000.txt.gz
Theta_e
287 287 287 287 287 287 287 288 287 286 286 287 288 288 289 289 289 289 290 290 291 292 293 294 294 295 296
287 287 287 287 287 287 286 285 285 285 285 286 286 287 287 287 288 289 290 291 290 291 292 293 294 295 296
287 286 286 287 285 284 283 283 283 283 284 285 285 286 287 288 290 288 287 288 289 290 290 291 292 293 294
287 287 287 285 284 283 283 282 283 283 284 285 285 285 286 285 285 286 287 287 288 289 290 291 292 293 294
286 286 285 284 283 282 282 283 283 284 283 283 284 284 283 284 284 285 286 287 288 290 290 290 291 292 294
286 285 283 283 282 282 283 284 282 282 283 283 283 283 283 283 284 285 285 286 288 287 288 289 290 292 292
283 283 283 283 283 283 282 282 282 282 282 282 282 282 282 282 283 284 285 286 287 288 288 289 289 290 291
282 283 283 282 282 282 282 282 282 281 281 282 281 281 281 282 282 283 284 285 287 288 290 290 290 291 291
283 282 281 281 281 282 282 281 281 281 280 281 281 281 281 281 282 283 284 286 286 287 288 289 289 290 290
279 279 279 280 281 280 281 280 280 280 280 281 281 282 283 283 283 283 283 284 285 286 287 288 289 289 289
279 279 280 280 280 280 280 280 280 280 280 282 282 282 282 282 283 282 282 283 283 283 284 285 287 288 288
280 280 280 279 279 279 279 280 280 280 281 281 282 283 283 283 282 282 280 280 282 283 284 285 286 287 289
280 279 279 279 279 279 280 280 280 281 281 282 282 281 282 282 282 280 280 282 283 285 286 287 288 289 289
279 279 279 279 280 280 280 280 280 281 282 282 282 282 281 280 280 279 280 282 284 286 288 290 291 292 292
279 279 279 279 279 279 280 280 281 282 282 282 282 282 281 280 280 281 282 284 287 288 290 290 291 291 292
278 278 278 279 278 280 280 281 282 282 282 282 281 282 282 283 283 281 286 287 287 290 290 291 290 290 291
277 278 278 278 279 279 280 281 281 283 282 281 282 281 282 283 283 286 287 288 288 289 290 290 291 290 291

GFSFLT2_925_thetae_003.txt.gz
Theta_e
287 287 287 286 286 286 287 287 286 286 285 285 286 286 288 289 290 290 291 291 291 292 292 293 294 295 296
286 286 285 286 286 286 286 285 284 283 283 284 285 286 287 288 288 289 289 290 291 292 292 292 293 294 294
285 285 286 286 286 285 283 283 282 283 283 283 285 286 286 286 287 288 289 288 288 289 290 290 291 291 293
286 287 285 286 285 283 283 282 282 282 283 284 283 283 284 285 285 285 285 286 286 287 288 289 290 291 291
285 286 284 283 283 282 282 282 283 283 282 282 282 282 282 283 283 283 284 285 286 287 288 289 290 291 292
284 284 282 282 282 282 283 282 282 282 282 282 282 282 282 282 283 284 285 285 286 287 287 288 289 291 290
282 282 282 282 283 283 282 282 282 282 282 282 281 281 281 281 282 283 284 285 286 286 288 288 289 290 290
282 283 283 282 282 282 282 282 282 281 281 281 281 280 281 281 281 283 284 285 285 286 287 288 289 290 291
283 282 281 281 281 282 281 281 280 280 280 280 280 280 281 281 282 283 284 285 285 285 286 287 288 288 289
279 279 279 279 281 280 280 280 280 280 280 280 281 282 282 282 282 282 282 283 283 284 284 286 287 288 288
279 279 280 280 280 279 279 280 280 280 280 281 281 281 281 282 282 282 282 282 281 281 282 284 285 287 288
279 280 279 279 279 279 279 279 280 280 280 280 281 281 282 282 282 282 282 281 281 281 281 283 285 286 287
279 279 279 279 279 279 279 280 280 280 280 281 281 281 282 282 282 281 282 282 281 282 284 285 286 286 286
278 278 278 278 279 279 279 279 280 280 281 282 282 282 282 282 282 281 281 282 283 284 286 289 290 290 289
277 277 278 278 278 279 279 280 280 281 282 282 282 282 282 282 281 283 284 284 287 288 289 290 291 290 290
277 277 277 278 278 279 279 279 280 281 282 282 282 281 283 284 284 282 285 288 289 290 290 291 291 290 291
276 277 278 277 278 278 279 279 280 282 282 282 282 282 283 285 285 287 286 290 290 291 290 290 291 290 292

GFSFLT2_925_thetae_006.txt.gz
Theta_e
285 285 285 285 284 285 285 285 286 286 286 285 285 285 286 287 288 289 290 290 291 291 292 293 294 295 295
285 285 284 285 285 286 285 285 285 283 283 284 284 285 285 286 287 288 288 289 289 289 290 292 292 293 293
284 284 285 285 285 285 284 283 282 282 283 283 283 284 285 285 285 286 287 287 288 288 289 289 290 291 292
284 285 286 285 283 282 282 282 282 282 282 282 283 283 283 283 284 284 284 285 285 286 287 287 288 289 290
286 285 283 282 282 281 282 282 282 282 281 281 282 282 281 282 282 282 283 284 285 286 287 288 288 289 289
283 282 281 281 281 282 283 282 282 282 282 282 282 281 281 281 281 282 283 284 285 285 286 287 288 288 289
281 281 281 282 283 282 282 282 282 282 282 282 281 280 280 280 281 282 283 284 285 285 286 287 287 288 289
281 282 283 282 281 282 282 282 281 281 280 281 280 280 280 280 281 282 283 284 284 286 286 287 288 289 289
283 281 281 281 281 282 281 280 280 280 280 280 280 280 280 280 281 282 283 283 284 284 285 286 286 287 288
279 279 279 279 280 280 280 280 280 280 280 280 280 281 281 281 281 281 281 282 283 284 285 286 286 287 287
278 278 279 279 279 279 279 279 279 279 280 281 281 280 280 281 281 282 282 282 282 282 283 284 285 286 286
278 279 278 278 278 278 278 278 279 279 279 280 280 280 281 281 282 282 283 283 283 282 282 283 284 285 286
279 278 277 277 277 278 278 278 279 279 280 280 281 281 281 282 282 282 283 284 283 283 283 284 284 285 285
277 277 277 277 277 278 278 278 279 279 280 281 282 282 282 282 282 282 283 284 284 285 286 287 289 290 289
276 276 277 277 277 278 278 278 278 279 280 282 282 282 282 283 283 284 285 286 289 290 290 290 290 291 290
276 276 276 277 277 278 277 278 279 280 281 282 282 282 283 285 285 284 287 287 289 290 290 290 290 290 290
276 276 277 276 277 277 277 278 279 280 282 281 282 283 284 285 285 287 286 288 289 289 289 290 290 290 293

GFSFLT2_925_thetae_009.txt.gz
Theta_e
285 285 285 285 285 285 285 285 285 285 285 285 286 286 286 287 287 287 287 288 289 290 291 292 293 294 295
285 285 285 285 285 286 285 285 284 284 283 284 285 285 285 286 286 287 287 288 288 288 289 290 291 291 293
285 285 285 285 285 284 283 282 282 282 283 283 283 284 285 285 285 286 286 286 286 287 288 288 289 290 291
286 286 284 284 283 283 283 282 283 283 283 283 283 283 283 283 284 284 284 284 285 285 286 287 287 288 288
285 284 284 283 282 282 283 283 283 282 282 282 282 282 282 282 283 283 283 283 284 285 286 287 287 288 288
284 283 282 282 282 283 283 283 284 282 282 282 282 282 282 282 282 282 283 284 284 285 285 286 287 287 288
282 282 282 282 283 282 282 282 283 282 282 282 281 282 282 281 281 282 283 284 284 285 286 286 287 287 288
282 282 283 282 282 282 282 282 282 281 281 283 281 282 281 281 281 282 283 284 284 285 286 286 287 287 288
283 282 281 281 281 281 281 281 282 281 281 281 281 281 281 282 282 282 283 284 284 285 286 286 286 287 287
280 279 279 279 280 280 280 280 280 281 281 281 281 282 283 282 283 282 283 283 284 285 285 286 287 287 287
279 279 279 280 279 279 279 278 279 279 279 280 281 281 281 283 283 283 283 284 284 284 285 286 286 287 287
279 279 279 278 278 278 278 278 278 278 279 279 280 281 282 283 284 284 284 285 285 285 285 285 286 287 287
279 279 278 278 277 278 278 278 279 279 279 280 280 281 282 283 285 284 285 286 285 286 286 287 287 287 286
278 277 277 277 278 278 278 279 279 280 280 281 281 282 283 284 284 285 285 286 287 288 289 289 290 290 289
277 277 277 278 278 278 278 278 279 280 280 281 283 283 283 284 285 286 287 287 288 288 289 290 290 290 290
276 276 277 277 278 278 278 278 279 280 280 282 283 283 285 286 287 287 287 288 288 288 289 290 291 290 290
275 276 276 277 277 277 278 278 279 280 282 283 282 284 285 287 287 286 287 287 288 289 289 290 290 290 291

GFSFLT2_925_thetae_012.txt.gz
Theta_e
287 287 287 287 287 287 287 286 286 286 286 286 286 286 287 287 288 288 288 289 289 289 290 290 291 293 294
287 286 286 287 287 286 286 285 285 284 284 285 285 286 286 286 287 287 288 288 288 289 289 290 290 291 292
287 287 287 287 286 285 285 284 284 284 284 284 285 285 286 286 287 287 287 287 287 287 288 288 288 289 289
287 288 287 286 285 285 284 284 284 284 284 284 285 285 285 285 285 285 285 286 286 286 287 287 287 288 288
289 287 286 285 284 284 284 284 284 284 284 284 284 284 284 284 285 284 285 285 285 285 286 287 287 287 288
286 286 284 284 284 284 285 284 286 284 284 284 284 284 284 284 284 284 285 285 285 285 286 287 287 287 288
284 283 283 283 284 285 284 284 284 283 284 284 284 284 284 284 284 284 284 285 286 286 286 286 287 287 288
283 283 283 284 284 283 283 283 283 283 283 285 283 284 284 284 284 284 285 285 286 286 287 287 287 287 288
283 284 283 282 282 282 283 283 284 283 282 283 283 283 283 284 284 285 285 285 286 286 287 287 288 288 288
283 282 281 282 282 282 282 282 282 283 282 282 282 282 284 284 285 284 285 285 286 287 288 288 288 288 288
281 281 282 282 282 282 281 281 281 281 281 281 281 281 282 284 284 284 285 286 287 287 288 288 289 289 289
281 281 282 281 281 281 280 280 280 280 280 280 281 281 282 284 285 285 286 286 287 287 288 288 288 289 290
280 280 280 280 280 280 281 280 280 281 281 281 281 282 282 283 285 286 287 287 287 288 288 289 289 289 289
280 279 279 280 280 281 280 280 281 281 282 282 282 282 283 285 285 285 286 288 288 289 289 289 289 290 290
279 279 279 280 280 280 280 280 281 282 282 283 283 284 285 285 285 287 288 289 289 289 288 289 290 290 290
278 279 279 279 279 280 280 281 281 282 282 283 284 285 285 286 288 288 288 288 288 288 289 290 290 290 291
278 278 279 279 279 279 280 281 282 282 283 284 284 285 287 287 287 287 287 287 288 289 289 290 290 290 290

GFSFLT2_925_thetae_015.txt.gz
Theta_e
288 288 288 287 287 288 288 287 287 287 286 287 287 287 288 288 288 289 289 289 290 290 291 291 292 292 293
288 288 288 287 287 288 287 287 286 285 286 286 287 287 287 288 288 288 289 289 289 290 290 291 291 291 292
288 287 287 288 288 287 286 286 285 285 285 285 286 286 287 287 288 288 288 288 288 288 289 289 289 289 290
287 287 287 288 286 286 285 285 285 285 285 285 285 286 286 286 286 287 287 287 287 287 288 288 288 288 289
287 287 287 286 285 285 285 285 284 285 284 284 285 284 284 285 285 285 286 286 287 287 287 288 288 288 288
288 286 286 285 284 284 284 285 285 284 284 284 284 284 285 285 285 286 286 286 287 287 288 288 288 288 287
285 285 284 284 283 284 285 284 284 283 283 284 284 284 284 284 284 285 286 286 287 288 288 288 289 289 289
284 283 283 284 285 285 283 283 283 283 284 284 283 283 284 284 284 285 286 287 287 288 288 289 289 289 290
283 284 284 284 283 283 283 283 283 283 283 283 283 283 283 283 283 285 286 287 287 288 288 289 290 291 290
283 283 282 282 283 283 283 283 283 282 282 282 282 282 283 282 283 283 284 285 286 287 288 289 290 290 290
282 282 282 282 283 282 282 282 282 281 281 281 282 281 281 282 282 283 283 284 286 286 287 288 289 290 290
281 281 281 281 281 281 281 281 281 281 281 281 281 282 282 282 282 283 284 284 285 286 287 288 289 289 290
281 281 281 280 280 280 281 281 281 281 281 282 282 282 282 283 283 283 285 285 285 286 288 289 289 289 289
280 280 280 280 280 280 281 281 281 281 281 282 283 283 284 284 284 285 285 285 286 287 288 288 289 289 289
280 280 279 280 280 280 280 281 281 281 282 282 283 283 284 284 285 285 286 287 288 288 288 288 288 289 290
279 279 279 279 280 280 280 280 281 281 282 283 283 284 284 285 286 287 287 286 287 287 287 288 289 289 289
279 279 279 280 280 279 280 281 281 281 282 283 284 284 285 285 286 286 286 286 286 287 288 288 289 289 289

GFSFLT2_925_thetae_018.txt.gz
Theta_e
286 287 287 287 287 287 287 288 287 287 286 287 287 288 288 289 289 289 290 290 291 291 292 292 293 293 293
287 286 286 286 286 287 287 287 286 286 286 286 287 287 287 288 288 289 289 290 290 290 291 291 291 291 292
286 286 285 285 286 287 286 285 285 284 285 285 285 286 287 287 288 288 288 288 288 289 289 289 290 290 290
285 285 285 286 286 285 284 284 284 284 283 284 285 285 285 286 286 286 286 287 287 288 289 289 289 289 289
286 285 286 285 285 284 283 283 283 283 284 283 283 283 283 284 284 285 285 287 287 288 289 289 289 290 290
286 285 285 284 283 283 283 283 284 284 283 283 283 283 283 283 284 285 286 286 287 288 288 289 290 290 290
285 284 283 283 283 283 284 284 284 283 283 282 283 283 283 283 283 284 285 286 287 288 289 289 290 290 291
283 283 283 284 285 285 284 283 283 283 283 283 283 282 282 282 283 283 285 286 287 288 288 289 289 290 290
283 283 284 283 283 283 283 282 283 283 283 282 282 282 282 282 282 283 284 285 285 286 287 288 289 290 290
283 281 281 281 282 282 282 281 281 281 282 281 281 281 281 282 282 282 282 282 283 284 286 287 288 288 289
281 281 281 281 281 281 281 281 281 281 281 281 281 281 281 281 281 282 282 282 282 283 284 285 287 288 289
281 281 281 280 280 280 280 280 280 280 281 281 282 282 281 282 282 282 282 283 283 284 284 285 286 287 289
281 280 280 280 280 279 279 279 280 280 280 281 281 281 281 282 282 283 284 283 284 285 285 285 286 287 288
280 280 280 280 279 279 279 279 279 280 281 281 281 282 282 282 283 283 283 284 285 285 286 286 287 287 287
279 279 279 279 279 279 279 280 280 280 280 281 281 282 282 282 283 283 284 285 285 286 286 286 286 286 287
278 278 278 278 279 279 280 279 279 280 280 281 281 281 283 283 284 284 285 285 285 285 285 286 286 287 287
278 278 278 279 279 279 279 279 280 280 280 281 282 283 283 284 285 286 286 285 285 285 286 287 287 288 288

GFSFLT2_925_thetae_021.txt.gz
Theta_e
286 286 286 286 285 285 285 286 287 286 286 287 287 288 288 288 289 289 290 290 291 291 292 293 293 294 294
285 285 285 285 285 285 285 286 286 285 285 286 286 286 287 287 288 288 289 289 290 291 291 291 291 292 293
285 285 285 285 285 285 285 284 284 284 284 284 285 285 287 287 287 287 288 288 288 288 289 289 290 290 291
285 284 285 285 285 284 284 284 283 283 283 284 284 285 285 285 285 285 286 286 287 288 288 289 290 290 291
284 285 285 284 284 284 283 283 283 283 283 284 283 283 282 283 283 284 285 286 287 288 288 289 290 291 291
285 285 284 283 283 283 282 283 283 284 284 283 282 282 282 282 283 284 285 285 287 287 287 288 289 290 291
284 283 283 283 283 282 283 284 284 283 283 282 282 282 282 282 283 283 284 285 286 287 288 289 290 290 291
283 283 283 283 284 284 283 283 282 282 282 282 282 282 282 282 282 283 284 285 286 286 287 287 288 289 289
283 284 284 283 283 282 281 281 281 281 281 281 281 281 281 281 282 282 283 284 284 284 285 286 287 288 288
283 282 281 281 281 281 281 280 280 280 281 281 281 281 281 281 282 282 281 281 282 283 284 285 286 286 286
280 280 280 280 280 280 280 280 280 280 280 280 281 280 281 281 281 281 281 281 282 282 282 284 285 286 286
280 280 280 280 280 279 280 279 279 279 279 279 279 280 281 281 281 281 282 282 282 282 283 283 285 286 286
280 279 279 279 279 279 279 279 279 279 279 280 279 280 280 280 281 281 282 282 282 283 284 284 284 284 285
279 278 278 279 279 279 279 279 279 279 280 280 280 280 280 281 281 281 282 282 283 283 284 284 285 285 286
277 278 278 278 278 278 278 279 279 279 279 280 280 280 280 280 281 281 282 282 283 283 284 285 285 285 285
277 277 277 277 277 278 279 279 279 279 279 280 280 280 281 282 282 282 283 284 284 284 285 285 285 286 286
276 276 276 277 279 278 278 279 279 279 280 280 281 282 283 283 284 285 286 286 285 286 285 286 286 287 287

GFSFLT2_925_thetae_024.txt.gz
Theta_e
285 286 286 286 285 284 285 285 285 285 286 287 287 288 288 288 289 289 289 290 291 291 292 293 293 294 295
285 286 286 285 285 285 285 284 284 284 285 286 286 286 287 287 288 289 289 289 289 290 290 290 291 292 292
285 285 285 285 284 285 284 283 283 283 283 284 284 285 286 287 287 287 287 287 288 288 288 289 289 290 291
285 285 285 285 284 284 283 283 282 282 283 283 284 285 285 285 285 285 285 286 286 287 288 289 289 290 291
285 284 284 284 283 283 282 282 282 283 283 283 284 283 283 283 283 283 284 285 286 287 287 288 289 290 290
286 284 284 283 283 282 282 282 283 283 283 283 282 282 282 282 282 284 285 286 286 286 287 288 288 289 290
285 284 283 283 283 282 282 283 283 282 282 281 281 281 282 282 283 283 284 285 286 286 287 287 288 289 291
284 284 283 283 284 284 283 282 281 281 281 280 281 281 281 281 282 283 284 285 285 286 286 287 287 287 288
283 284 284 284 283 282 281 281 280 280 280 280 280 281 281 281 282 282 283 284 284 285 285 286 286 287 287
283 282 281 281 281 281 280 280 279 280 281 280 280 280 281 281 281 282 281 282 282 283 284 285 285 285 285
280 280 280 280 280 280 280 279 279 279 279 280 280 279 279 280 280 281 281 281 281 281 282 283 284 285 285
279 279 279 279 279 279 279 279 279 279 279 279 278 279 279 279 280 280 281 281 281 281 281 282 283 284 285
279 279 278 278 278 279 279 279 278 279 279 279 279 279 279 279 279 280 281 281 281 281 282 282 283 283 283
278 278 277 278 278 278 278 278 278 278 279 279 280 280 279 279 280 280 280 281 281 281 282 282 282 283 283
277 277 277 277 277 277 277 278 278 279 278 279 280 280 280 280 280 280 281 281 281 282 282 282 283 284 284
276 276 276 276 276 277 278 278 278 278 278 279 279 280 281 282 282 281 281 282 282 283 284 285 285 285 285
276 276 276 276 277 276 277 278 278 278 279 279 280 282 282 282 283 285 285 285 285 285 285 285 285 286 286

GFSFLT2_925_thetae_027.txt.gz
Theta_e
286 286 286 286 286 285 284 284 284 284 285 286 287 288 288 288 289 289 289 290 291 292 292 293 293 293 294
285 285 286 286 285 285 284 283 283 283 284 286 286 286 287 287 288 288 289 290 290 290 290 290 291 291 292
284 285 285 286 285 284 284 283 282 283 283 284 284 285 286 287 287 287 287 288 288 288 288 289 289 290 290
285 285 285 285 284 283 283 282 282 282 283 283 284 285 285 285 285 286 286 286 287 287 287 288 288 289 290
285 285 284 284 283 283 282 282 282 282 283 283 283 282 282 283 283 283 284 285 286 287 288 288 289 289 290
286 284 284 283 283 282 282 281 282 283 282 282 282 281 282 282 282 284 285 286 286 287 287 287 288 289 289
285 284 283 283 283 283 282 282 283 282 282 281 281 281 281 282 282 283 284 285 286 286 287 287 287 288 289
284 284 284 284 284 284 283 282 281 281 281 280 281 280 281 281 281 283 284 285 285 286 287 287 287 287 287
283 284 284 283 283 282 282 281 280 280 280 280 280 280 280 280 282 282 283 284 285 285 285 286 286 286 286
282 282 281 281 281 281 280 279 279 280 281 280 280 280 280 281 281 281 281 281 282 283 284 284 285 285 285
280 280 280 280 280 280 279 278 278 279 279 280 280 279 279 279 279 280 280 280 280 281 281 282 283 284 284
279 279 279 279 279 279 279 279 278 278 280 278 278 278 278 278 279 280 280 280 280 280 280 281 282 283 284
278 278 278 278 278 279 279 278 278 278 279 279 278 279 279 279 279 279 280 280 280 280 280 281 282 281 281
278 277 277 277 278 278 277 277 277 278 278 279 279 279 279 279 279 279 280 280 281 281 281 281 281 281 281
276 276 276 277 277 277 277 277 277 278 278 279 279 279 279 279 279 280 280 281 281 281 281 281 282 282 282
276 276 275 276 276 277 277 276 277 277 278 278 279 279 280 281 281 281 281 282 282 282 283 283 284 284 285
276 276 276 277 277 276 276 277 277 278 278 278 280 281 281 281 282 284 284 285 285 285 285 285 285 285 285

GFSFLT2_925_thetae_030.txt.gz
Theta_e
286 287 286 286 286 286 285 284 284 283 285 286 287 288 288 289 289 289 290 290 291 291 292 293 294 294 294
285 286 286 286 286 285 285 284 283 282 284 285 286 286 287 287 288 288 289 289 290 290 290 291 291 291 292
284 285 285 285 285 285 284 283 282 283 283 284 284 285 286 287 287 287 288 288 288 288 289 289 289 290 290
285 285 285 285 285 284 283 282 282 283 283 283 284 284 285 285 285 286 286 286 287 287 288 288 289 289 289
284 285 285 285 284 284 282 282 282 283 283 282 282 282 283 283 283 283 284 285 286 287 287 288 289 289 290
286 284 284 284 283 282 282 282 283 283 283 282 282 282 282 282 283 283 285 286 286 287 287 287 288 288 289
285 284 284 283 283 283 283 282 282 282 282 281 281 281 282 282 282 283 284 285 286 287 287 287 288 288 288
284 284 283 284 284 284 283 282 281 281 281 280 281 281 281 281 281 282 284 285 285 286 287 287 287 287 288
283 283 283 283 282 282 281 280 279 280 280 280 280 280 280 280 282 282 283 284 284 284 285 285 286 286 286
282 282 281 281 281 280 280 279 278 279 280 280 280 279 280 281 281 281 281 281 281 282 283 284 284 285 285
280 280 281 280 280 280 279 278 277 278 279 279 280 279 279 279 279 279 279 280 280 280 280 281 282 283 283
279 279 279 279 280 280 280 279 278 277 279 278 277 277 278 278 278 279 280 280 280 280 280 280 282 283 284
278 278 278 279 280 280 280 279 279 279 279 279 278 278 278 278 278 279 279 280 280 280 281 281 281 281 281
277 277 278 278 279 279 278 278 276 278 279 279 279 279 278 278 278 279 279 280 280 280 280 280 280 281 280
277 276 277 277 278 278 277 277 276 277 277 279 279 279 279 278 279 279 279 280 280 281 281 281 281 282 282
276 277 277 277 277 278 278 276 276 277 277 278 278 278 279 281 281 280 281 281 282 282 283 283 284 284 284
276 277 277 277 276 277 277 277 277 278 278 278 278 280 281 281 282 283 284 284 284 284 284 284 284 285 285

GFSFLT2_925_thetae_033.txt.gz
Theta_e
288 288 287 287 287 286 286 285 285 285 285 286 287 288 288 289 289 289 290 290 291 291 292 293 294 295 295
286 286 286 287 286 286 286 285 284 284 284 286 286 287 287 288 288 289 289 290 290 290 290 291 291 292 292
286 285 285 286 285 285 285 284 283 283 284 284 285 285 286 287 288 288 288 288 288 289 289 289 290 290 291
285 286 285 285 285 285 284 284 283 283 283 284 284 284 285 285 286 286 286 286 287 287 288 288 289 289 290
286 286 286 286 286 285 284 283 283 283 283 283 283 283 283 283 284 284 284 285 286 287 288 288 289 290 290
286 286 286 285 284 283 283 284 284 284 283 283 283 283 283 283 283 284 285 286 286 287 287 288 288 289 289
286 285 284 284 283 283 284 284 283 283 283 283 283 283 283 283 283 283 284 285 286 287 287 288 288 288 289
284 284 284 284 284 283 283 283 282 282 282 282 283 283 283 282 282 283 284 285 285 286 287 287 287 288 288
283 283 283 283 283 282 282 282 281 282 281 281 282 282 282 282 282 283 283 284 284 285 285 285 286 286 286
282 282 281 280 281 280 280 280 280 280 281 281 282 281 282 282 282 282 281 282 282 283 283 284 284 284 284
280 279 280 280 280 280 279 279 279 279 280 280 280 280 280 280 281 281 281 281 281 281 281 282 282 283 283
279 280 280 279 280 280 280 280 279 278 281 278 278 278 279 279 280 281 281 281 281 281 281 281 282 283 284
279 279 279 279 280 281 281 281 279 280 281 280 279 278 278 278 279 279 280 281 280 280 281 281 281 282 282
278 278 277 278 278 279 278 279 278 280 281 281 280 279 278 278 279 279 280 281 281 281 281 281 281 281 281
276 277 277 277 278 278 279 278 279 279 279 280 280 279 279 278 279 279 280 281 281 282 282 282 282 283 283
276 275 276 276 277 278 279 279 279 279 279 279 280 279 280 281 281 280 282 283 283 284 284 284 284 284 285
276 277 276 277 277 278 278 279 280 281 281 280 279 281 282 283 283 283 283 284 285 284 284 284 284 284 285

GFSFLT2_925_thetae_036.txt.gz
Theta_e
289 288 291 292 288 288 288 287 287 287 287 287 287 288 289 289 290 290 291 291 291 292 293 293 294 294 295
290 290 289 287 287 287 287 287 287 286 286 286 287 288 288 288 289 289 290 290 291 291 292 292 292 292 293
288 287 286 286 286 287 287 287 287 286 285 285 286 287 287 288 288 289 289 289 289 290 290 290 291 291 292
287 287 287 287 287 287 287 287 286 285 285 286 286 286 286 286 287 287 287 287 288 288 289 289 289 290 290
288 288 288 287 287 287 286 286 285 285 286 286 286 286 286 286 286 286 286 286 287 287 288 289 289 290 290
288 288 287 287 287 286 285 285 286 285 285 285 286 286 286 286 286 286 286 287 287 287 288 288 289 289 289
287 287 287 286 285 285 284 285 285 285 285 285 285 285 286 286 286 286 286 286 286 287 287 288 288 289 289
286 286 285 285 285 285 285 284 284 285 285 285 285 285 285 285 285 285 285 286 286 286 287 287 288 288 288
284 283 284 284 284 284 283 284 284 284 284 284 284 285 285 285 285 285 285 285 285 286 286 286 286 287 287
283 283 282 282 281 282 283 283 283 283 285 283 284 283 284 284 284 284 284 284 284 284 284 285 285 285 285
282 281 282 282 282 282 282 282 281 281 282 282 282 282 283 283 283 284 283 284 284 284 284 284 284 284 284
281 282 282 283 283 282 281 281 281 280 281 280 280 281 281 281 282 283 283 283 283 283 284 284 284 284 285
282 282 282 282 281 280 281 281 280 280 281 281 279 279 279 280 281 281 282 282 282 282 283 283 284 284 283
281 281 281 280 281 282 282 282 282 282 283 282 281 280 280 280 280 281 281 282 282 282 283 283 283 283 283
280 280 280 280 281 281 281 281 281 283 284 284 283 282 282 281 281 281 282 282 282 283 283 284 284 285 285
279 279 279 279 280 280 281 282 282 283 283 283 283 283 283 283 283 283 283 284 285 285 285 286 286 286 286
278 278 278 278 279 280 281 281 282 283 283 283 283 284 285 285 285 284 284 285 285 285 286 286 286 286 287

GFSFLT2_925_thetae_039.txt.gz
Theta_e
289 289 289 289 291 292 290 289 288 288 289 289 289 289 289 289 290 291 291 292 292 293 293 294 294 295 295
291 292 292 292 292 291 288 288 287 287 288 289 288 288 288 289 290 290 290 291 291 291 292 292 293 293 294
290 290 289 288 287 287 287 287 287 287 288 287 287 287 288 289 289 289 290 290 290 290 290 290 291 291 292
288 288 288 288 288 287 287 288 287 287 286 286 287 288 288 288 288 288 288 289 289 289 289 290 290 290 291
289 289 289 288 288 288 288 287 286 286 286 286 287 286 286 287 287 287 288 288 288 288 289 289 290 290 290
289 288 288 288 288 287 287 286 286 285 286 285 286 286 286 286 286 287 288 288 288 288 288 289 289 289 289
288 288 288 287 286 286 285 285 285 285 285 285 285 286 286 286 286 287 287 288 288 288 288 288 288 289 289
286 286 286 286 285 285 285 285 285 285 285 286 286 286 286 285 286 287 287 287 287 287 287 288 288 288 288
285 284 284 284 285 284 284 284 284 285 285 285 285 285 285 285 285 286 287 287 287 287 287 287 287 287 287
284 284 284 283 283 283 283 283 284 283 284 284 284 284 284 284 285 285 284 285 286 286 286 286 286 286 286
283 282 282 282 283 283 283 283 283 282 283 283 283 283 283 283 283 283 283 283 284 284 285 285 285 286 285
281 281 282 283 283 283 283 282 282 282 282 281 281 281 281 281 281 281 282 282 282 282 283 284 284 285 285
281 283 283 283 282 281 281 281 282 282 282 282 282 281 280 280 280 281 281 281 281 282 283 284 284 284 284
282 282 281 281 281 281 282 282 282 282 282 283 283 283 282 282 281 281 282 282 282 282 282 283 283 283 284
281 281 281 281 281 281 281 281 281 281 282 283 284 284 283 283 283 283 283 283 283 283 283 283 284 284 284
280 279 280 279 279 279 280 280 281 282 282 283 283 283 284 284 284 284 284 284 284 285 285 285 286 286 286
279 279 279 279 279 279 279 280 281 281 282 283 283 283 284 284 285 285 285 285 285 285 285 285 285 286 286

GFSFLT2_925_thetae_042.txt.gz
Theta_e
292 292 292 291 292 291 290 292 294 293 291 291 291 291 291 291 291 291 292 292 293 293 294 294 295 295 295
291 290 291 290 290 292 292 291 289 288 289 290 290 290 290 290 290 291 291 291 292 292 292 293 293 293 294
291 291 291 292 291 291 291 289 287 287 289 289 288 288 288 289 290 290 290 291 291 291 291 291 291 292 292
291 290 290 289 289 289 288 288 288 287 287 287 287 287 288 289 289 289 289 289 289 290 290 290 290 291 291
289 289 289 288 288 288 288 288 287 287 286 286 286 286 286 286 286 287 287 288 289 289 290 290 290 290 291
289 289 289 288 288 288 287 286 285 285 285 284 284 285 285 285 286 287 288 288 289 289 289 290 290 290 290
288 288 287 287 286 286 286 285 285 284 285 284 285 285 285 285 286 287 287 288 289 289 289 289 289 289 289
287 286 286 286 285 285 285 285 285 284 284 284 285 285 285 285 285 286 287 288 288 288 288 288 289 289 289
286 285 285 285 285 285 285 284 283 283 283 283 284 284 284 285 285 285 286 286 286 286 287 288 288 288 288
284 283 283 283 283 283 283 283 282 283 284 283 283 283 283 284 284 284 284 283 284 284 285 286 286 286 286
282 282 282 281 282 283 283 282 282 283 282 283 283 282 282 282 282 282 282 282 281 282 282 283 283 285 285
281 281 281 282 283 283 283 283 282 282 282 282 281 281 281 281 281 282 281 281 281 282 282 282 283 283 284
281 282 282 282 282 282 281 281 282 282 282 282 281 282 281 281 281 282 282 282 282 282 282 282 282 283 282
281 281 281 281 281 281 281 281 281 282 282 282 282 282 282 282 282 282 282 282 283 282 283 283 283 283 284
281 280 280 280 280 280 280 280 281 281 281 281 282 282 283 283 283 283 283 283 283 283 283 283 284 284 284
280 279 279 279 279 279 279 279 280 280 281 281 281 282 283 283 283 283 283 284 284 284 284 284 284 284 284
279 279 279 279 279 279 279 279 279 280 280 281 281 281 282 282 283 283 284 284 285 284 284 284 284 284 284

GFSFLT2_925_thetae_045.txt.gz
Theta_e
295 296 295 296 295 294 294 293 293 290 290 293 294 293 292 292 292 292 292 293 293 294 294 295 295 296 296
293 294 294 293 293 293 291 290 290 291 293 291 291 291 292 292 291 291 291 292 292 292 293 293 294 294 295
292 291 292 291 290 291 291 291 292 291 289 290 290 290 289 289 290 291 291 291 291 291 291 292 292 292 293
292 291 290 291 291 291 290 289 288 288 287 287 287 287 288 288 289 289 289 289 289 290 290 291 291 291 292
290 290 289 289 289 289 288 288 288 287 286 286 285 285 285 285 286 286 286 287 289 290 290 290 291 291 291
289 289 289 289 288 288 288 286 285 285 285 284 284 285 285 285 285 286 288 288 289 289 290 290 290 290 290
288 288 287 287 286 286 286 285 285 285 285 284 284 284 285 285 285 286 287 288 289 289 289 290 290 290 290
288 287 286 286 286 285 285 285 284 284 284 283 284 284 285 285 285 285 286 287 288 288 288 288 288 289 289
286 286 285 285 285 285 285 284 283 283 283 283 283 283 284 285 285 285 286 285 285 286 286 286 286 287 288
284 283 283 282 283 283 283 283 282 281 283 283 283 282 282 283 284 284 284 284 283 283 283 284 284 285 285
281 282 281 281 282 282 282 282 282 282 282 283 282 282 281 282 282 282 282 283 283 283 283 283 283 284 284
280 280 281 282 283 283 283 282 282 282 282 281 281 281 281 280 281 282 282 282 283 283 283 284 283 284 284
280 281 281 281 281 281 281 281 281 281 281 281 281 281 281 281 281 281 282 283 283 283 284 283 284 284 283
280 281 281 280 280 280 280 280 280 280 281 281 281 281 281 281 281 282 282 282 283 283 282 283 283 283 283
280 280 280 279 279 279 279 279 279 279 280 280 280 281 281 282 282 283 283 283 283 283 282 282 283 283 284
279 279 279 279 279 279 279 279 279 279 279 279 280 280 281 281 282 283 283 283 283 283 283 283 283 284 284
279 279 279 279 279 278 279 279 279 279 279 279 279 279 279 280 281 282 282 282 283 283 283 283 283 283 284

GFSFLT2_925_thetae_048.txt.gz
Theta_e
299 298 298 297 298 297 297 296 296 295 295 294 294 294 295 296 295 294 294 294 294 294 295 295 296 297 297
297 295 295 294 295 295 295 295 294 294 293 292 293 294 294 293 293 293 293 292 292 293 293 294 294 295 295
294 292 292 292 292 292 292 292 291 290 290 291 292 292 293 292 291 291 291 291 292 292 292 292 293 293 294
292 291 291 291 291 291 290 290 290 290 288 289 289 288 289 289 289 289 290 289 290 290 290 291 291 292 292
291 290 290 289 289 289 289 288 288 288 287 287 286 286 285 285 285 286 287 287 288 289 290 291 291 291 291
289 289 289 289 288 288 288 287 285 286 285 285 284 284 284 285 285 285 287 288 289 289 290 290 291 291 291
288 288 287 286 286 286 286 285 285 285 284 284 284 283 284 285 285 285 287 288 288 289 289 290 290 290 290
287 287 286 286 286 286 285 285 284 284 283 283 283 283 284 285 285 285 286 287 288 288 289 288 288 289 289
286 285 285 285 285 285 285 284 283 283 282 282 283 283 284 285 284 285 286 286 285 285 286 286 286 287 287
285 284 283 282 282 283 283 282 282 281 283 283 283 282 281 283 284 284 284 284 284 284 284 285 285 285 284
281 281 281 281 281 282 282 282 282 282 282 282 282 282 282 281 281 283 283 283 283 284 284 284 284 284 284
280 280 281 282 282 282 282 282 281 281 281 281 281 281 281 281 281 281 281 281 282 283 283 284 284 284 284
279 280 280 281 281 281 281 280 280 280 281 281 281 281 281 281 281 281 281 282 281 282 283 283 283 283 283
280 280 280 280 280 279 279 279 279 280 280 280 281 281 281 281 281 281 280 281 282 282 282 282 282 282 282
280 279 279 279 279 279 279 279 279 279 279 279 279 279 280 280 280 280 281 281 281 282 282 282 282 283 283
279 279 279 279 279 279 279 278 278 278 278 279 279 278 279 279 280 281 281 282 282 282 282 282 282 283 283
278 278 278 278 278 278 278 278 278 278 278 278 278 278 278 278 279 281 281 281 281 281 281 282 282 282 282

GFSFLT2_925_thetae_051.txt.gz
Theta_e
303 302 300 298 298 299 299 300 299 299 298 298 298 297 296 296 296 297 297 297 297 297 297 297 297 297 298
298 297 296 295 296 296 296 297 297 297 296 296 295 295 294 295 296 296 295 296 295 294 294 294 295 296 296
295 294 293 293 293 293 293 292 292 292 292 292 293 293 294 294 294 295 293 292 292 292 293 293 293 294 294
293 292 291 291 291 291 291 291 291 291 291 291 291 290 291 291 290 290 290 291 291 291 291 291 291 292 292
291 291 290 290 290 289 289 289 289 289 288 288 288 288 287 286 285 285 286 288 289 289 289 290 291 291 292
289 289 289 289 289 288 288 287 286 285 285 286 285 285 285 284 284 284 286 287 288 289 290 290 291 291 291
287 287 287 286 286 285 285 285 285 285 284 284 284 284 283 284 284 285 287 288 288 289 289 290 290 290 291
286 286 286 286 286 286 285 285 284 284 284 283 282 283 283 284 284 285 286 287 288 289 289 289 289 289 289
285 285 285 285 285 284 285 284 283 282 282 282 282 283 283 284 284 285 286 287 287 286 286 287 287 287 287
283 283 283 282 282 282 282 283 282 281 282 282 282 282 281 282 283 285 285 284 284 284 285 285 286 286 285
280 280 280 280 281 282 282 281 281 281 282 282 282 282 281 281 281 282 283 284 284 283 284 284 284 285 285
279 279 280 281 281 281 281 281 281 281 281 281 281 281 281 281 281 281 281 282 282 283 283 283 283 283 285
280 280 280 280 280 280 280 280 280 280 280 280 280 281 281 281 281 281 281 281 281 281 282 283 283 283 283
280 280 280 280 279 279 279 279 279 279 280 280 280 280 280 281 281 281 281 280 281 280 281 281 281 281 281
279 279 279 279 279 279 278 279 279 278 279 280 280 279 279 279 279 280 280 280 280 280 281 281 282 282 282
278 279 279 278 278 278 279 279 278 277 278 278 278 278 278 279 280 279 279 280 281 281 281 281 281 282 282
278 278 278 278 278 278 278 277 277 277 277 277 277 277 276 277 279 280 281 280 280 280 280 280 280 281 281

GFSFLT2_925_thetae_054.txt.gz
Theta_e
302 301 301 301 300 299 299 299 300 303 304 303 302 300 299 299 299 298 297 298 300 299 299 300 300 300 300
298 298 297 296 295 296 297 298 299 300 299 299 298 298 297 297 296 296 296 296 297 297 297 297 296 296 297
295 294 294 293 293 293 294 294 295 296 296 296 296 294 294 295 295 295 295 296 295 294 294 293 294 295 295
293 292 292 291 291 291 291 291 291 292 292 292 292 292 291 292 292 291 291 291 291 292 292 292 292 292 293
291 291 290 290 289 289 289 289 289 289 289 289 288 289 289 288 288 287 286 286 288 289 290 290 290 291 291
289 289 288 288 287 287 287 287 286 285 285 286 285 286 286 285 284 284 284 286 287 287 288 289 290 291 291
287 287 286 286 285 285 285 285 284 285 284 284 284 283 282 283 283 284 286 287 288 289 289 290 290 290 291
285 285 285 286 285 285 285 284 284 283 282 283 282 282 284 284 284 284 285 287 288 288 289 289 289 290 290
285 285 285 284 284 284 283 284 283 282 282 281 282 282 283 283 283 285 286 286 287 287 287 287 288 288 288
282 281 281 281 281 281 281 282 282 280 282 282 282 281 281 282 283 283 284 284 285 285 285 286 286 286 286
279 279 280 280 281 281 282 282 281 281 281 281 282 282 282 281 281 282 282 283 284 284 284 284 284 284 285
279 279 280 280 280 281 281 281 281 281 281 280 280 280 281 280 280 281 281 281 282 283 283 283 283 283 284
280 280 280 280 280 280 280 279 279 280 280 280 279 279 279 280 280 280 280 281 281 281 281 282 282 282 282
280 280 279 279 279 279 279 278 278 279 280 279 279 279 279 278 279 280 280 280 281 281 280 281 281 282 282
279 279 279 279 279 279 278 278 279 279 278 279 279 278 278 278 278 279 280 280 280 280 280 280 280 280 281
278 278 278 278 278 278 278 279 278 277 277 277 277 277 277 280 280 280 279 280 281 280 280 280 280 280 281
277 277 277 278 278 278 277 277 277 277 276 276 276 276 274 275 278 280 280 280 280 280 280 279 280 280 281

GFSFLT2_925_thetae_057.txt.gz
Theta_e
302 300 300 300 299 299 299 299 299 300 302 304 302 303 303 302 301 301 300 300 299 299 301 301 301 302 302
298 298 297 296 295 296 297 297 298 299 299 299 299 299 299 299 299 298 298 298 298 298 297 297 298 298 299
295 294 294 293 293 294 294 295 296 296 297 298 298 297 297 297 297 297 297 296 297 297 296 295 295 296 296
293 292 291 291 291 291 291 292 292 292 293 293 294 294 293 294 294 294 295 295 294 294 293 294 293 294 294
292 292 291 291 289 289 290 289 289 288 287 288 288 289 289 290 289 289 289 289 288 289 290 291 291 291 292
289 289 288 287 286 286 286 287 288 285 285 286 285 285 285 286 286 285 285 285 286 287 288 288 290 290 291
287 286 286 285 285 285 285 285 285 284 283 284 283 283 282 283 283 283 284 286 287 288 289 289 290 290 291
285 285 285 285 285 285 284 284 284 283 282 283 282 283 283 283 284 284 284 286 287 288 289 289 289 290 290
284 284 284 284 284 284 284 283 283 283 281 282 283 282 283 283 284 284 285 286 287 288 288 288 288 289 289
281 280 280 280 280 281 280 282 282 282 281 282 282 282 284 282 283 283 283 284 284 285 285 286 287 287 287
279 279 280 280 281 281 281 281 281 281 281 281 281 282 282 283 282 282 282 282 283 283 284 284 284 284 285
279 279 280 280 280 280 280 280 280 280 280 280 280 280 281 281 282 282 282 282 282 282 282 283 283 283 284
279 280 280 280 280 280 280 279 279 279 279 280 279 279 279 280 281 281 281 282 282 281 283 283 282 282 282
279 280 279 279 279 279 279 279 279 280 280 279 279 278 278 279 279 279 280 281 282 282 281 281 281 281 282
279 279 279 279 279 279 279 279 279 280 280 279 278 278 278 278 278 279 280 281 281 281 280 281 281 282 282
277 277 278 278 278 278 279 279 279 279 278 278 277 277 277 279 280 281 280 280 280 280 280 280 280 281 282
277 277 277 277 277 277 277 278 278 278 278 277 276 275 278 279 280 279 280 280 281 281 281 281 281 281 281

GFSFLT2_925_thetae_060.txt.gz
Theta_e
304 303 300 299 298 298 298 299 299 299 301 301 302 303 304 304 303 303 302 302 302 301 301 302 303 303 303
298 298 297 297 295 295 296 297 297 297 298 299 299 299 299 299 300 300 300 299 299 299 299 299 299 300 300
297 295 295 295 293 293 294 294 294 295 296 296 297 297 297 297 297 298 298 298 298 298 297 297 297 298 298
296 295 293 292 291 292 295 293 292 292 292 293 293 294 294 295 295 295 296 296 296 296 296 296 295 295 296
296 295 294 293 291 291 292 292 291 288 289 289 289 289 290 289 290 290 291 292 293 293 292 292 292 293 293
294 294 292 290 289 289 289 289 290 287 286 287 287 287 287 287 286 286 286 286 287 288 288 289 289 290 291
289 289 288 287 287 287 287 287 287 286 285 286 285 285 285 285 284 283 283 285 287 288 288 288 289 290 290
287 287 287 287 286 286 286 286 286 285 284 285 285 286 286 286 284 285 286 287 287 288 289 289 289 290 290
284 284 285 285 284 285 286 285 285 285 284 284 285 285 285 285 285 285 285 286 287 288 288 289 289 289 289
282 281 280 281 280 282 283 284 284 285 284 284 285 284 286 286 285 285 285 284 285 286 286 287 287 287 288
281 281 281 282 282 282 282 282 284 284 283 283 283 284 284 285 285 285 285 284 285 284 284 285 286 286 287
281 281 282 282 282 281 281 281 281 281 282 281 281 282 282 282 284 285 285 285 284 284 284 284 284 284 285
281 282 282 282 280 281 280 280 280 280 280 280 280 281 280 281 282 283 283 284 284 284 284 284 285 284 284
281 281 281 281 281 281 281 281 281 282 281 280 279 279 280 281 281 281 282 283 284 284 284 284 284 284 283
280 281 280 281 281 281 281 281 281 282 282 282 280 279 279 279 280 280 281 282 283 283 283 283 283 284 284
280 280 280 280 280 280 280 281 281 282 281 281 280 280 280 281 280 280 282 283 283 283 282 282 282 283 283
279 279 279 279 279 279 280 280 280 280 280 280 280 279 280 282 283 282 281 282 282 282 283 283 283 283 284

GFSFLT2_925_thetae_063.txt.gz
Theta_e
306 303 302 301 299 298 297 298 298 298 299 301 303 303 303 303 304 304 304 304 303 303 302 303 303 304 304
301 299 298 297 296 296 296 296 297 297 298 299 300 300 300 300 300 300 300 300 300 300 300 300 300 301 302
298 297 296 296 294 294 294 295 294 294 294 295 297 298 298 298 298 298 298 298 298 298 298 298 298 298 299
297 296 294 293 293 293 295 295 294 292 292 291 291 292 293 293 294 295 295 296 296 296 296 296 296 296 296
297 296 295 294 293 292 292 292 292 290 288 290 288 289 290 289 289 289 290 291 293 294 294 294 294 294 294
294 295 294 291 290 289 289 289 290 288 286 286 287 287 287 287 286 286 284 285 286 288 289 289 290 290 290
290 289 289 288 287 287 288 288 288 287 285 286 286 286 286 286 286 285 285 285 284 286 288 288 289 289 290
288 288 287 287 287 287 286 286 286 286 284 285 286 286 286 286 286 285 285 286 287 287 288 289 289 290 290
284 284 284 284 285 285 286 285 286 285 284 284 286 285 286 286 286 285 285 285 285 287 289 289 289 289 289
283 282 281 282 281 282 283 284 285 286 284 284 285 285 285 287 286 286 286 286 285 285 287 287 287 287 287
282 281 282 282 283 283 282 283 284 285 285 283 283 284 285 285 285 285 285 285 285 285 285 285 286 287 286
281 282 282 282 283 282 282 281 282 282 283 282 281 282 282 282 283 285 285 285 285 285 285 285 285 286 286
281 282 283 283 283 281 282 281 281 281 281 281 280 281 281 281 281 282 282 284 284 284 284 284 284 285 285
282 282 282 281 282 282 282 282 282 282 282 282 280 280 280 280 281 281 282 282 283 283 284 284 284 284 284
281 281 281 281 281 282 282 282 282 282 283 283 282 281 280 280 280 280 280 281 282 282 283 283 283 283 283
281 281 281 281 281 281 281 281 281 282 282 282 282 281 281 280 281 281 280 281 282 283 283 283 283 283 283
280 280 280 280 280 280 280 280 281 281 281 281 281 281 280 279 281 283 282 282 282 282 282 283 283 283 283

GFSFLT2_925_thetae_066.txt.gz
Theta_e
305 302 301 300 299 298 297 297 297 297 298 299 301 303 303 304 304 304 305 305 304 305 305 305 305 305 305
302 300 298 297 296 295 295 295 295 296 297 297 299 300 300 300 301 301 301 301 300 300 302 302 302 302 302
299 298 296 296 294 293 294 295 294 293 293 293 295 296 296 297 298 298 298 298 298 298 298 298 299 299 299
298 296 295 294 292 293 294 293 293 292 291 291 290 291 291 291 292 293 294 295 295 295 296 296 296 296 296
297 296 295 294 292 292 290 290 290 290 288 288 287 287 288 288 289 289 289 290 292 294 294 294 294 294 294
294 294 294 291 289 289 288 288 288 287 287 286 286 286 286 285 285 285 284 284 284 285 287 289 290 291 291
289 289 288 288 287 287 288 287 287 287 286 284 286 286 286 286 286 286 286 286 287 286 287 288 289 289 289
288 288 287 287 287 286 286 286 286 286 285 284 285 286 286 286 286 286 285 286 286 288 288 289 289 289 290
284 284 284 284 285 285 285 286 285 284 284 284 285 285 285 286 286 286 286 286 286 286 288 289 289 289 289
283 282 282 281 281 281 283 283 285 285 284 284 284 284 284 286 286 286 286 286 286 286 286 287 287 287 287
282 282 282 282 283 282 282 282 284 284 284 284 283 283 284 284 284 285 285 285 285 285 285 285 286 286 286
281 281 282 282 282 282 282 282 282 282 283 283 282 282 282 281 282 284 285 285 284 285 285 285 285 285 286
281 281 282 282 283 283 282 282 282 282 282 282 282 281 280 281 281 281 281 282 282 284 284 283 284 284 284
281 282 282 282 281 281 282 282 282 282 282 282 282 282 280 280 280 279 279 280 281 281 281 282 283 283 283
281 281 281 281 281 281 282 282 282 282 281 282 283 283 282 281 280 280 280 280 280 281 281 282 283 283 283
280 281 281 281 281 281 281 281 281 281 281 281 282 282 282 281 281 281 280 281 282 282 282 283 283 283 283
280 280 280 281 280 281 281 280 280 280 280 281 281 281 279 280 280 280 280 281 282 282 282 282 281 281 281

GFSFLT2_925_thetae_069.txt.gz
Theta_e
304 301 301 301 301 299 297 297 297 297 298 298 300 302 304 305 305 306 306 307 307 306 306 306 307 307 307
301 300 301 300 297 295 295 296 295 295 296 296 297 299 300 301 301 301 301 301 302 302 303 303 302 302 303
299 298 298 296 295 294 294 294 293 292 292 292 293 295 297 297 298 299 298 299 299 299 299 299 300 300 300
298 297 296 294 293 293 294 292 292 291 290 291 290 290 291 291 292 292 294 295 295 295 296 296 297 297 297
297 296 295 294 292 292 290 289 289 289 288 287 287 287 288 288 288 288 287 288 291 294 294 294 295 295 295
295 294 293 292 290 289 288 287 288 287 287 285 286 286 285 285 285 286 286 285 284 284 286 289 291 292 293
291 290 290 289 288 287 287 287 286 286 286 284 285 286 286 286 286 286 286 286 287 288 287 288 289 289 289
288 288 288 287 287 286 286 286 286 285 285 284 285 286 286 286 286 286 286 286 286 287 288 288 289 289 290
285 285 285 285 285 285 286 286 284 284 284 284 284 285 285 286 286 286 286 287 287 286 287 288 289 289 289
284 283 282 282 282 281 283 283 284 284 284 284 284 283 284 286 286 286 286 286 286 286 286 287 287 287 287
282 282 282 282 282 282 282 282 283 284 284 284 283 283 283 284 284 285 285 285 285 285 285 285 285 287 287
281 281 281 282 282 282 282 282 282 282 283 283 283 282 282 281 281 284 285 284 284 284 283 283 284 284 285
281 281 282 282 282 282 283 282 281 282 282 282 282 282 281 280 281 281 281 283 282 284 282 281 281 282 283
281 281 282 282 282 281 281 281 282 282 282 282 282 282 282 281 281 280 280 280 282 281 281 282 283 283 283
281 281 281 281 281 281 281 281 282 282 281 281 281 282 282 282 281 280 281 280 281 281 281 282 283 283 283
280 280 280 281 281 281 281 281 281 281 281 280 281 281 281 281 281 281 280 281 281 281 281 281 282 282 282
280 280 280 280 280 281 281 281 280 280 280 279 280 280 276 279 280 281 281 281 281 281 281 280 280 281 281

GFSFLT2_925_thetae_072.txt.gz
Theta_e
303 302 300 300 300 299 300 298 297 297 298 298 300 302 303 304 305 307 307 307 307 308 309 310 309 311 311
300 299 300 299 299 299 297 296 296 295 296 296 297 298 300 301 302 303 303 304 304 305 306 306 306 305 304
300 299 298 297 297 296 295 294 293 293 293 292 293 295 296 297 298 299 299 300 300 301 301 301 301 301 301
299 297 297 295 295 293 294 293 292 291 290 291 290 291 291 292 292 293 295 296 296 297 297 298 298 298 298
297 296 295 294 293 293 291 290 290 289 288 287 287 287 287 288 288 287 286 288 291 294 294 294 295 295 295
296 295 294 293 292 289 288 287 287 287 286 285 285 285 285 285 286 286 286 286 285 284 287 291 292 293 293
294 293 292 292 290 288 287 287 286 286 285 284 285 285 286 286 286 286 286 286 287 288 286 286 286 287 288
289 289 289 289 288 287 286 285 285 285 284 284 284 285 286 285 286 286 286 287 287 287 288 288 289 289 290
286 287 287 286 286 286 286 286 284 284 284 284 284 285 285 286 286 286 286 287 287 287 286 288 289 289 289
284 283 282 282 282 282 283 284 284 284 284 284 284 284 284 286 285 285 286 286 286 286 286 286 287 287 287
284 282 282 282 282 282 282 282 283 284 284 284 284 283 283 283 284 284 285 285 285 285 285 285 285 286 287
282 281 281 282 282 282 282 282 282 282 283 283 283 283 282 282 282 283 284 284 284 284 283 283 284 283 285
281 281 281 281 282 282 282 282 282 281 282 282 282 282 281 281 281 281 281 283 282 283 283 282 282 282 282
281 281 281 282 282 282 281 281 281 282 282 282 282 282 282 282 281 281 280 281 282 282 281 282 282 283 283
281 281 281 281 282 281 281 281 281 282 282 281 281 281 282 282 281 280 281 281 281 281 281 281 282 283 283
281 281 280 281 281 281 281 281 281 281 281 281 280 281 280 281 281 281 280 280 281 281 280 280 281 282 282
281 281 280 280 280 281 281 281 280 280 280 280 279 279 275 278 280 280 281 281 281 280 280 280 280 281 280

GFSFLT2_925_thetae_075.txt.gz
Theta_e
304 303 302 302 301 301 300 299 300 298 299 299 299 301 302 303 305 306 306 306 308 309 310 310 311 313 313
301 299 300 299 299 298 297 298 297 296 296 297 297 298 300 301 302 303 304 304 305 306 306 305 306 307 308
299 299 298 297 296 296 297 296 294 293 293 293 294 296 296 297 298 299 300 301 301 301 302 302 302 302 302
299 298 297 295 295 295 294 294 292 291 291 291 291 292 292 292 292 293 295 296 297 297 298 299 299 300 300
298 296 295 294 294 294 293 292 291 290 289 288 288 288 288 289 288 287 287 287 290 294 295 295 296 296 297
297 296 295 294 293 292 290 288 287 287 287 286 286 286 286 286 286 286 286 286 285 285 288 292 293 293 294
296 295 294 293 292 289 288 287 286 286 286 285 285 285 285 286 286 286 286 286 287 288 286 285 285 286 287
293 292 291 291 289 288 287 286 285 285 285 284 284 285 285 285 286 286 286 287 287 287 288 288 288 289 289
287 287 287 287 287 286 286 286 284 284 284 284 284 285 285 285 286 286 286 287 287 287 287 288 289 289 289
284 284 283 283 284 283 283 284 284 283 284 284 284 284 284 285 285 285 285 286 286 286 286 287 287 287 287
284 283 282 282 282 282 282 282 283 284 284 284 284 284 283 284 285 285 285 285 285 285 285 285 285 286 287
283 282 281 282 282 282 282 282 282 282 283 283 283 283 283 282 282 283 283 284 285 284 284 283 283 284 283
282 282 281 281 282 282 282 282 282 282 281 281 281 281 281 281 282 282 282 283 283 283 283 283 282 282 283
283 281 281 281 282 282 282 282 281 281 282 282 282 282 281 282 281 282 282 281 282 283 282 282 282 282 283
283 281 281 282 282 282 282 281 281 282 282 282 281 281 280 281 280 281 281 281 282 281 281 281 282 282 283
282 281 281 281 281 281 281 281 281 281 281 281 281 280 279 280 281 280 280 280 281 281 280 280 282 282 282
282 281 281 280 280 281 281 280 280 280 280 280 280 279 276 278 280 280 281 280 280 281 280 280 280 280 280

GFSFLT2_925_thetae_078.txt.gz
Theta_e
306 303 304 303 302 303 302 301 301 299 299 299 299 300 301 303 304 305 305 306 308 309 312 313 315 316 316
303 302 301 300 300 300 299 298 298 298 297 297 298 299 299 300 302 302 303 303 305 305 306 307 308 310 310
301 300 299 299 298 297 297 297 296 295 295 294 295 296 297 297 299 298 299 301 302 304 304 304 305 306 306
301 299 298 297 296 296 295 295 294 292 292 292 292 293 293 293 293 294 296 297 298 299 300 300 301 301 301
299 297 296 294 294 294 294 293 292 291 291 290 290 289 289 290 289 288 288 290 293 295 296 298 298 298 298
297 297 296 295 294 294 292 290 289 289 288 287 287 286 286 287 286 286 286 286 286 286 289 293 295 295 295
296 295 295 295 294 291 290 288 287 286 286 285 285 285 285 285 286 286 286 287 287 288 286 285 286 287 288
294 294 293 292 292 290 289 287 286 285 285 285 284 285 285 285 285 286 286 287 287 288 288 288 288 288 289
288 288 288 288 288 287 286 285 285 284 284 284 283 284 285 285 286 287 286 287 287 288 287 288 289 289 289
285 285 286 286 285 285 285 285 284 283 284 284 284 284 284 285 285 286 286 286 286 287 287 287 287 287 287
284 284 283 282 282 282 282 282 283 283 284 284 284 284 283 284 285 285 285 285 285 285 285 285 285 285 286
284 282 282 282 282 282 282 282 282 282 283 284 283 283 283 282 283 283 283 284 284 285 284 284 284 284 284
283 282 282 281 281 282 282 282 282 282 282 282 282 282 282 282 282 282 283 283 283 283 283 283 283 283 283
284 282 281 281 281 281 282 282 282 281 281 282 282 282 282 282 281 282 282 282 282 283 282 282 282 282 282
285 283 281 281 281 282 282 282 281 282 282 282 282 281 281 281 280 281 281 282 282 282 281 282 282 282 282
283 283 281 281 281 282 282 282 281 281 281 281 281 281 280 280 280 280 280 281 281 281 281 281 282 283 282
283 282 282 281 281 281 280 281 280 280 281 280 280 280 277 279 280 280 281 281 281 281 281 281 281 281 281

GFSFLT2_925_thetae_081.txt.gz
Theta_e
308 307 305 304 304 303 302 302 302 301 300 300 299 300 301 302 303 304 305 306 308 309 311 314 316 318 318
305 304 302 302 301 301 300 300 299 298 297 298 298 299 299 299 302 303 303 304 304 306 308 310 311 314 315
303 302 301 300 299 298 298 297 297 296 296 296 295 296 297 296 298 299 300 301 302 304 305 306 308 309 309
301 300 299 298 297 297 296 296 295 294 293 293 293 294 294 293 293 295 296 297 298 301 302 302 303 303 305
299 298 297 296 296 296 295 295 294 294 292 291 291 290 291 291 289 289 289 291 293 296 297 297 298 299 299
298 297 297 296 295 295 294 292 294 292 290 289 289 287 287 287 286 286 286 286 287 289 291 295 296 296 297
296 296 296 296 295 293 292 291 289 287 287 286 286 285 285 285 286 286 287 287 288 287 286 287 290 291 292
294 295 295 294 294 293 292 290 287 286 286 286 284 284 285 285 285 286 287 288 287 289 288 288 287 287 288
289 291 291 291 291 290 289 287 286 285 285 284 284 284 285 285 285 287 286 287 287 288 288 289 289 289 289
287 288 288 287 287 287 286 286 285 285 284 284 284 284 285 285 285 286 286 286 287 287 287 287 287 287 287
284 283 283 284 284 283 283 284 284 283 284 284 284 284 284 284 285 285 285 285 285 285 286 286 286 286 286
284 283 282 282 282 282 282 282 282 282 283 284 284 284 283 283 284 283 284 285 285 284 285 285 285 285 285
283 283 282 282 282 282 282 282 282 282 282 283 283 283 283 282 283 283 283 283 283 283 283 284 284 284 283
284 283 282 281 281 282 282 282 282 282 282 282 282 282 282 282 282 282 283 283 283 283 283 283 283 283 283
285 284 282 281 281 281 282 282 282 282 282 281 282 282 282 281 281 281 281 281 282 282 282 282 282 282 282
285 284 283 281 281 281 282 282 282 281 281 281 281 281 281 281 281 281 281 281 281 282 281 281 281 282 283
283 283 283 282 281 281 281 281 281 281 281 281 280 281 282 282 281 280 281 281 281 282 281 281 281 282 281

GFSFLT2_925_thetae_084.txt.gz
Theta_e
309 309 308 306 305 304 303 303 302 302 301 300 300 300 301 302 302 303 304 305 307 309 310 313 315 315 314
307 306 305 303 302 301 301 301 300 300 298 298 298 299 299 299 298 301 303 303 304 304 307 311 312 316 318
306 303 302 301 300 299 299 298 298 298 297 297 296 297 298 297 297 298 299 301 302 303 304 306 309 309 311
304 301 300 299 299 298 297 297 297 295 295 294 295 295 295 296 293 294 296 297 298 300 302 303 304 305 307
300 299 298 297 297 297 296 296 295 294 292 292 291 290 293 292 290 289 289 292 295 296 298 299 301 300 301
299 299 298 298 297 296 295 293 294 293 292 293 290 289 288 288 288 287 286 286 287 289 292 295 296 297 298
297 297 297 297 297 294 294 293 294 289 289 290 287 287 286 286 286 286 287 287 288 287 287 288 292 293 294
295 295 295 295 295 294 293 293 290 289 287 289 285 286 285 285 285 286 287 288 287 289 289 288 287 287 288
290 292 293 293 293 291 291 291 290 288 286 286 285 286 286 286 287 288 287 287 288 288 289 290 290 289 289
288 288 289 289 289 289 290 291 289 288 285 286 285 286 287 286 286 287 287 287 288 288 288 288 288 288 288
286 285 287 288 286 285 286 287 288 288 285 285 286 285 287 287 285 285 286 286 286 286 286 286 286 286 287
286 285 285 284 284 283 282 282 283 283 284 284 285 286 287 286 286 284 285 285 285 285 285 285 285 285 285
286 285 285 284 283 282 283 282 282 282 283 284 284 283 284 286 286 285 285 284 284 284 284 284 284 285 285
286 285 283 282 283 283 284 284 284 284 283 282 282 282 283 283 284 285 285 285 284 283 283 283 283 283 283
285 284 283 283 283 283 284 284 285 285 284 282 282 282 282 283 283 284 284 284 283 283 282 283 283 283 283
286 285 284 283 284 283 284 284 285 285 284 284 283 283 283 283 282 283 284 284 284 283 282 283 284 284 283
286 285 284 284 284 284 284 284 284 284 284 284 283 283 285 286 284 281 283 284 283 283 283 284 284 284 284

GFSFLT2_925_thetae_087.txt.gz
Theta_e
311 310 309 307 306 305 305 304 304 303 302 302 302 301 301 301 302 302 303 304 305 305 307 310 312 313 315
309 308 307 306 305 303 302 302 302 302 301 300 299 300 299 300 299 299 302 302 303 304 305 308 310 313 317
307 305 303 303 301 301 301 301 301 300 299 297 297 298 297 298 297 297 297 299 301 303 303 304 307 308 312
306 303 302 300 300 300 299 299 298 297 297 295 295 296 296 296 295 293 295 297 298 299 301 302 303 305 307
303 301 300 299 299 299 298 297 297 296 295 293 293 292 294 293 292 291 289 291 294 296 298 299 300 300 301
301 300 299 299 299 298 297 294 294 295 294 293 292 291 290 290 289 288 287 287 287 290 293 296 297 298 299
299 299 298 298 298 296 295 295 295 293 292 293 291 289 288 288 287 287 287 287 288 287 287 289 293 295 296
296 297 297 297 296 296 296 294 292 292 289 289 288 287 287 286 286 287 287 287 288 289 288 287 287 288 290
292 294 294 295 294 294 293 293 292 289 288 287 286 286 286 286 286 287 287 288 288 290 290 291 290 289 288
288 289 291 292 293 292 292 291 292 289 287 286 286 286 286 286 286 287 287 287 289 289 288 288 289 289 289
288 288 289 289 288 288 289 290 290 289 286 285 287 286 288 287 286 286 286 286 287 287 287 287 287 287 288
287 286 286 287 286 284 284 285 285 286 285 285 286 287 288 287 287 285 285 286 286 286 285 285 286 286 286
287 286 285 285 285 283 282 283 282 283 283 284 284 284 285 288 287 285 285 285 285 285 285 284 284 285 285
287 286 286 285 283 283 283 283 284 283 282 283 283 283 283 283 284 286 285 285 285 284 284 284 284 284 284
287 286 284 283 283 284 285 284 285 286 285 283 282 282 282 283 284 284 284 285 284 284 283 283 283 283 283
286 285 283 283 284 284 284 285 285 285 285 284 283 283 283 284 282 283 284 284 284 284 283 283 284 285 285
287 286 284 283 285 284 284 284 285 286 285 285 284 284 284 283 285 282 283 284 284 284 283 284 284 285 285

GFSFLT2_925_thetae_090.txt.gz
Theta_e
311 310 308 307 306 305 306 305 305 305 304 304 303 302 301 301 301 302 301 302 303 304 304 306 309 311 311
310 309 307 305 305 304 304 304 303 303 303 301 301 301 300 300 299 298 300 300 302 302 303 304 306 308 315
308 307 306 305 303 302 302 301 301 301 300 300 299 298 298 298 297 296 297 298 299 300 302 303 304 308 308
306 305 305 302 301 300 300 300 300 299 299 298 297 297 297 296 296 294 293 297 297 298 299 300 302 304 306
304 303 302 300 299 300 299 299 298 298 297 296 296 295 294 294 293 292 291 289 292 295 297 298 299 300 301
302 302 301 301 300 299 298 296 295 297 296 296 294 292 291 291 291 290 288 287 287 287 292 295 297 298 299
300 300 300 300 300 298 297 296 296 295 294 293 292 291 290 290 289 288 287 287 287 288 287 290 293 295 297
299 298 298 298 298 298 297 295 293 292 291 290 290 288 288 287 286 286 287 287 288 290 289 288 288 290 292
295 295 296 296 296 296 294 293 291 291 290 289 287 286 286 286 286 286 287 287 288 290 291 291 290 289 288
289 291 293 294 293 293 294 293 292 288 289 287 286 286 285 286 286 287 287 288 289 289 289 289 289 289 289
288 289 290 291 292 292 292 292 292 289 287 286 286 286 289 286 286 286 287 287 287 287 287 287 287 287 288
289 288 289 289 288 288 289 289 291 290 287 285 286 286 286 287 286 286 286 286 286 286 286 286 286 286 286
288 286 286 288 287 285 284 284 284 285 285 284 285 286 287 288 287 285 285 285 286 286 286 286 285 285 285
287 286 286 285 285 284 282 282 282 283 283 284 284 285 285 285 286 285 285 285 285 284 284 284 284 284 284
287 286 286 285 285 283 283 283 284 284 283 282 283 283 283 283 284 284 285 285 284 284 283 283 283 283 284
287 287 286 285 283 284 284 284 284 286 285 283 282 282 282 282 282 283 284 284 284 284 284 283 284 285 286
286 286 286 284 284 284 284 285 284 286 285 285 283 283 279 279 285 283 282 284 284 284 284 283 284 285 285

GFSFLT2_925_thetae_093.txt.gz
Theta_e
311 310 310 308 307 306 305 306 305 305 305 304 304 304 303 302 301 301 300 300 302 303 304 305 306 307 310
310 309 308 307 305 304 304 305 304 304 304 303 303 302 301 300 300 299 299 300 300 301 302 302 303 305 308
309 308 306 305 304 302 303 303 302 302 302 301 301 299 299 299 298 297 296 297 298 298 299 300 301 303 306
308 307 306 304 302 302 301 300 300 300 300 299 298 298 298 298 296 294 293 293 296 296 297 299 299 301 304
306 304 303 301 301 302 300 299 299 299 298 298 298 297 296 296 294 293 293 291 289 290 294 296 298 299 300
305 303 302 302 302 301 299 297 296 299 297 297 296 294 293 293 292 292 291 289 287 287 289 293 295 297 298
304 303 302 302 301 299 299 298 297 297 296 294 294 293 292 291 290 290 288 287 287 288 288 289 292 294 296
302 301 301 300 300 300 300 297 295 294 294 292 292 291 291 289 288 287 287 287 288 290 291 289 292 292 293
300 299 298 298 298 298 296 294 292 292 291 291 289 288 287 287 286 286 287 287 288 290 291 290 289 288 288
295 294 295 296 296 296 296 295 294 291 292 290 287 286 285 286 286 288 288 288 290 289 289 289 289 289 289
291 291 292 293 294 294 294 294 293 291 289 288 286 285 287 286 286 286 287 287 288 288 288 287 287 287 288
289 288 289 291 291 292 292 292 292 292 291 287 286 286 288 286 286 286 286 286 286 286 286 286 286 286 286
289 289 289 289 289 289 289 289 290 290 289 287 285 286 285 286 286 285 285 286 286 286 286 286 286 286 285
290 289 287 288 288 287 285 284 284 285 285 285 284 285 286 287 287 285 285 285 285 285 284 284 285 285 285
289 287 286 286 286 285 284 283 282 283 283 283 284 284 284 284 284 284 285 285 285 284 284 283 283 283 284
288 287 286 285 285 284 283 282 282 284 282 282 283 282 282 283 283 283 284 284 284 284 284 284 284 284 285
287 287 286 285 285 284 283 283 283 284 285 284 282 282 280 282 285 283 283 284 284 284 284 284 284 285 285

GFSFLT2_925_thetae_096.txt.gz
Theta_e
311 311 311 310 310 308 308 307 306 306 305 304 305 305 304 304 303 302 301 300 300 302 302 303 304 306 307
309 308 309 308 308 307 307 304 305 305 305 304 304 302 302 302 300 299 299 298 299 299 299 300 301 304 305
308 307 306 306 305 304 304 303 303 303 303 303 302 300 300 300 299 298 297 295 298 298 298 299 299 300 302
309 306 306 304 304 303 302 302 302 302 301 301 301 299 299 299 298 296 295 294 294 295 295 297 298 299 300
307 305 303 301 301 303 303 301 300 299 299 300 299 298 297 297 297 295 293 293 292 290 289 293 296 297 299
305 304 302 304 304 303 301 298 296 300 298 298 297 297 296 295 295 293 292 291 289 288 288 290 293 296 297
307 307 304 305 304 301 300 299 299 298 297 296 296 296 294 293 292 291 290 289 287 288 288 289 291 294 295
308 307 306 304 303 303 302 299 297 297 296 294 293 293 293 292 290 289 288 287 287 290 292 292 292 292 293
305 304 303 302 301 301 298 296 292 293 293 293 291 291 290 289 288 287 287 287 288 290 290 290 289 288 289
301 301 300 299 298 298 299 295 294 291 293 292 290 290 286 286 286 286 288 287 290 290 290 289 288 288 288
298 297 297 297 296 297 297 297 296 295 292 292 288 287 285 285 286 287 288 288 289 289 288 287 287 287 288
293 293 294 294 295 294 294 294 294 295 293 291 288 287 287 285 285 286 286 287 288 288 287 287 286 286 287
290 290 291 292 292 292 292 292 292 293 292 291 288 286 286 286 286 285 286 286 286 286 286 286 286 286 286
289 291 289 289 289 290 289 289 290 289 289 288 286 286 285 285 286 286 285 285 286 286 286 286 286 285 285
290 290 288 288 287 287 288 287 286 286 285 285 285 285 285 286 286 286 285 285 285 285 284 284 284 284 284
289 289 286 286 286 286 285 284 283 283 283 283 283 284 284 284 284 284 284 284 285 285 284 284 283 283 284
288 287 286 285 285 284 284 283 282 282 282 282 283 283 277 278 284 283 283 283 284 284 284 284 284 285 286

GFSFLT2_925_thetae_099.txt.gz
Theta_e
313 312 312 312 312 311 310 309 309 308 307 306 305 306 305 305 305 304 303 301 301 300 301 302 303 304 305
308 309 311 310 311 310 308 307 307 306 306 305 305 304 305 302 303 301 300 298 298 299 299 299 300 301 303
307 308 308 309 307 306 306 306 305 305 304 304 304 303 302 301 301 300 298 297 296 297 297 298 298 299 300
309 306 306 305 306 305 304 304 304 303 302 302 301 301 300 300 300 299 297 296 294 293 293 294 296 298 299
306 304 303 303 303 302 303 303 302 302 301 300 300 299 299 299 299 297 296 294 293 292 291 289 293 296 298
306 306 303 303 303 303 302 299 297 300 299 299 299 299 299 298 297 296 294 292 291 290 288 288 291 294 296
307 306 304 306 306 302 301 300 300 301 298 297 297 298 297 296 295 294 292 291 290 288 288 289 293 295 295
310 310 310 309 308 307 305 303 299 299 297 296 296 296 295 294 292 291 290 289 287 289 291 291 292 292 293
311 310 309 308 307 305 301 298 294 294 295 296 292 292 292 292 291 290 289 287 287 290 290 290 289 289 289
307 306 305 304 303 303 302 297 295 292 295 294 291 291 288 288 288 288 288 288 288 290 289 289 288 288 288
303 302 302 301 301 300 301 301 296 296 295 294 290 289 287 285 286 286 287 288 289 290 289 288 287 288 288
298 298 298 298 298 298 298 297 297 298 296 293 291 290 287 285 285 286 287 287 289 289 288 287 287 287 287
294 295 296 297 296 295 295 295 294 294 294 292 292 288 288 287 285 285 286 287 287 288 287 286 286 286 286
292 292 293 293 294 293 292 291 291 290 290 290 289 289 286 286 286 286 286 286 286 286 286 286 286 286 286
291 291 290 290 290 290 291 289 289 286 286 287 287 286 286 285 286 286 286 285 285 286 285 285 285 285 285
290 289 287 287 286 287 288 288 288 286 285 285 285 285 285 285 286 286 285 285 285 285 284 284 284 284 284
290 288 287 286 286 284 285 285 284 284 285 285 284 284 277 280 283 285 284 285 285 285 284 284 284 284 284

GFSFLT2_925_thetae_102.txt.gz
Theta_e
312 313 312 315 315 314 312 311 312 312 312 312 310 309 309 308 306 305 304 303 303 302 301 301 302 303 303
309 310 311 313 314 313 311 310 310 309 308 307 306 305 305 304 304 304 303 301 302 300 300 300 299 300 302
308 309 309 310 311 311 310 308 308 306 306 305 305 304 304 302 302 301 300 300 300 299 298 298 298 298 299
310 308 308 307 307 306 304 305 305 304 304 303 303 302 302 301 300 299 299 298 297 297 297 295 294 296 297
307 305 305 304 304 304 303 303 304 304 302 302 302 301 300 300 300 298 299 297 296 295 295 294 292 293 296
310 308 306 306 304 303 302 302 298 302 302 301 301 300 299 299 299 298 297 296 293 293 292 290 289 292 295
312 311 307 306 306 302 303 303 302 302 301 299 299 298 298 298 297 297 296 294 292 291 289 288 292 292 294
312 312 311 309 309 307 306 303 301 300 299 296 297 297 297 296 296 295 294 292 290 288 289 291 291 292 292
311 311 310 309 307 306 301 298 294 295 296 298 294 293 294 294 293 292 292 290 288 290 290 289 290 290 290
308 308 308 308 309 308 307 299 294 292 296 297 292 293 289 291 291 290 290 290 288 291 289 289 288 288 287
305 306 305 306 306 306 307 304 299 299 297 296 291 291 289 285 286 288 288 289 289 290 289 288 288 288 288
300 300 300 302 303 302 302 301 301 301 299 297 294 293 288 284 285 285 287 288 289 289 288 287 287 287 288
296 297 299 299 300 298 298 298 297 297 297 296 296 294 292 289 285 285 286 287 288 289 288 287 287 287 287
296 296 296 296 296 296 293 293 294 291 292 292 292 293 290 288 287 286 286 287 287 288 288 287 286 286 286
294 294 292 293 291 293 293 290 290 286 286 287 288 288 287 287 286 286 286 285 286 287 286 286 286 286 286
292 291 290 289 288 288 291 289 288 286 284 284 285 285 285 285 285 285 285 285 285 286 285 285 285 285 285
291 290 289 288 287 286 287 287 286 285 284 283 284 285 278 281 285 285 285 285 284 284 285 284 284 284 284

GFSFLT2_925_thetae_105.txt.gz
Theta_e
322 322 319 318 316 318 316 315 315 314 314 318 316 314 314 312 310 308 307 307 305 304 302 302 302 302 303
316 315 314 314 314 315 314 314 313 314 315 314 314 312 310 309 307 306 306 305 304 302 301 301 301 301 300
309 310 308 309 310 311 312 312 312 312 312 311 310 307 305 305 305 304 303 303 302 301 300 299 299 299 299
310 309 309 308 309 308 306 309 309 309 309 308 306 305 304 304 303 302 300 299 300 300 298 299 298 296 295
310 308 307 306 307 306 305 304 305 306 305 305 304 303 303 303 302 300 299 299 297 297 298 298 296 293 293
313 310 309 309 307 306 304 301 300 303 304 302 303 302 302 301 301 300 299 298 298 296 295 294 292 291 294
314 311 311 310 309 305 304 304 306 304 303 300 301 300 301 300 299 299 299 298 296 294 292 291 290 293 293
310 313 314 313 311 310 307 305 303 303 302 298 299 298 300 299 298 298 298 297 294 292 290 290 291 292 292
308 309 311 313 312 306 303 299 295 296 299 301 296 296 297 297 297 296 296 294 292 290 291 291 290 291 291
304 307 309 310 310 308 302 302 296 293 296 299 292 294 291 293 294 295 293 292 291 290 291 290 289 289 289
301 303 306 306 304 305 303 304 300 298 300 299 294 292 291 286 288 291 291 291 290 291 291 289 288 288 287
299 300 301 302 302 303 302 303 304 306 302 301 296 294 288 285 287 288 289 290 290 291 290 289 288 288 288
296 297 299 300 301 299 300 300 300 302 302 299 300 296 295 288 286 286 286 288 289 290 289 288 288 287 288
296 297 297 297 296 295 292 296 294 291 292 294 297 298 292 290 288 286 287 288 288 289 288 288 287 287 287
295 295 294 293 293 293 292 291 291 287 287 289 292 293 293 293 286 286 286 286 286 287 288 287 287 286 286
292 292 292 292 291 291 292 292 289 288 286 285 285 286 286 286 286 285 284 285 284 287 287 287 286 286 286
291 291 291 291 290 289 290 291 289 288 286 285 284 288 289 288 284 285 285 285 284 284 285 285 286 286 286

GFSFLT2_925_thetae_108.txt.gz
Theta_e
324 324 323 323 323 323 323 323 322 321 317 319 321 321 319 321 317 315 313 312 308 307 306 305 305 304 304
323 321 322 322 321 320 318 318 318 318 317 318 315 315 319 316 314 313 312 309 307 306 305 304 302 302 302
322 318 317 315 313 314 314 314 315 316 316 314 315 317 314 313 312 310 308 307 305 305 303 301 301 299 299
319 313 311 311 310 309 308 310 312 314 314 314 315 314 312 310 309 307 306 305 304 303 302 301 299 298 297
312 309 307 307 307 307 308 307 308 311 311 311 311 310 307 306 305 304 304 303 302 300 300 298 298 297 295
312 312 311 310 308 307 307 303 301 306 307 306 307 306 305 305 304 303 303 302 299 299 297 296 297 295 293
306 309 312 311 310 307 307 306 308 307 305 303 305 304 304 304 304 303 302 300 299 298 296 295 293 291 293
304 306 308 311 311 310 309 308 307 307 304 304 300 302 302 302 302 301 301 300 299 298 296 293 292 291 292
300 301 302 304 309 309 307 304 296 298 302 303 297 298 297 300 301 300 300 299 298 297 294 292 291 291 290
297 298 300 302 305 308 307 305 304 295 298 301 294 297 293 296 299 299 298 298 297 296 293 293 291 291 292
295 297 298 300 301 305 307 306 304 301 300 300 294 295 295 288 292 296 297 296 295 293 293 292 291 290 290
293 295 297 298 299 302 305 305 305 307 305 301 299 297 291 288 288 290 294 294 293 292 292 291 290 288 288
292 294 296 297 298 299 301 302 302 302 302 299 300 297 298 292 289 289 290 291 292 291 291 290 290 288 288
292 292 294 296 296 297 296 296 297 296 297 296 297 298 294 292 292 289 292 290 290 290 290 289 289 288 289
290 290 292 293 293 294 293 291 294 290 290 292 292 293 294 291 290 290 290 291 289 290 289 288 288 287 287
288 289 291 291 292 290 291 292 293 291 288 286 289 289 288 288 290 290 290 289 288 288 288 288 287 287 287
288 289 289 290 290 290 290 291 292 290 288 287 287 290 291 292 286 288 288 287 287 286 288 289 289 287 286

GFSFLT2_925_thetae_111.txt.gz
Theta_e
322 323 324 324 324 323 323 323 323 323 322 322 322 322 322 320 324 324 323 320 318 314 311 309 309 308 306
323 323 322 322 323 324 323 323 322 322 322 322 322 322 320 319 323 322 320 319 315 311 309 308 307 305 304
320 321 321 321 321 321 321 321 322 321 321 321 321 320 319 320 321 319 318 314 312 311 308 306 305 303 302
310 315 315 316 315 314 314 315 314 315 315 316 317 318 319 318 316 315 313 313 312 309 306 305 304 302 301
307 309 309 308 309 311 310 310 309 310 312 314 314 316 315 315 315 313 313 312 309 307 305 304 302 301 300
302 305 307 310 310 310 308 305 302 308 311 310 313 312 313 312 312 312 311 308 305 304 303 302 300 299 299
299 301 305 306 308 309 307 307 308 309 308 308 308 308 309 309 310 310 308 305 304 303 300 298 297 297 297
295 296 298 299 300 302 306 308 307 308 308 308 305 306 307 308 308 307 306 304 303 301 300 298 297 295 295
291 293 294 296 297 299 302 306 303 302 306 307 302 304 303 304 305 305 305 303 301 300 299 298 296 294 293
290 290 292 294 296 297 300 303 305 298 302 302 298 300 296 299 302 303 303 302 301 300 299 298 295 293 291
288 289 291 292 294 297 298 300 303 304 304 304 298 297 298 291 297 301 301 300 299 298 298 297 294 292 291
289 290 291 293 292 294 296 298 299 302 304 305 302 300 297 289 291 296 298 299 298 297 296 295 293 292 291
288 289 289 289 291 292 294 294 296 299 302 303 302 301 299 297 289 292 295 296 297 296 295 294 293 292 290
288 288 287 288 289 291 293 294 293 296 298 299 300 300 297 297 296 292 295 292 293 294 293 293 292 291 289
286 286 287 287 288 290 291 292 292 294 292 294 296 297 297 295 293 292 293 292 292 292 292 291 290 290 288
285 286 287 288 288 289 290 291 291 292 292 289 290 291 290 290 292 292 292 291 291 291 291 290 289 289 289
285 285 286 288 288 289 290 290 290 291 291 288 290 292 292 293 288 291 292 290 290 290 290 290 288 288 287

GFSFLT2_925_thetae_114.txt.gz
Theta_e
314 320 324 325 325 325 325 324 324 324 324 324 324 324 323 323 323 323 323 322 324 324 319 317 314 311 310
309 311 316 322 324 324 324 324 323 323 323 323 323 322 322 322 322 322 323 322 324 323 318 316 313 311 308
306 307 310 312 316 319 319 320 322 323 323 322 322 322 322 322 322 322 322 322 324 321 318 314 311 309 307
302 305 307 308 311 312 314 317 318 318 318 318 318 317 317 319 320 320 320 321 323 319 317 313 309 308 306
299 299 302 304 307 308 309 311 312 312 313 314 314 314 315 316 317 318 319 320 319 318 313 309 308 307 304
295 297 298 301 302 302 304 306 303 311 309 311 311 313 314 316 317 317 318 318 316 313 311 308 308 305 303
293 293 294 295 296 297 298 300 304 308 308 308 310 311 313 313 314 315 315 315 313 311 309 307 306 304 302
289 290 290 291 293 294 296 297 300 302 306 306 309 308 310 312 313 314 314 313 311 310 308 305 304 302 301
288 289 289 290 290 292 294 296 297 301 304 305 306 306 306 307 308 310 312 311 310 308 306 303 302 299 297
288 287 288 288 290 291 293 295 296 297 301 302 303 303 299 303 305 306 307 308 309 307 304 302 301 298 296
287 287 288 289 289 291 292 291 293 294 297 299 300 300 301 297 300 304 304 303 304 303 302 300 300 298 296
287 287 287 287 288 288 288 288 290 292 293 295 298 299 299 293 294 300 302 302 302 301 300 299 298 297 296
286 287 287 286 287 286 286 287 289 291 292 293 294 298 300 301 297 296 299 299 300 300 298 298 296 295 293
286 286 286 285 285 285 286 287 288 290 291 293 294 295 297 299 299 294 298 297 298 297 297 296 295 295 294
285 286 285 285 285 286 287 287 288 289 291 292 293 295 296 298 297 296 296 296 296 296 294 294 293 294 294
285 285 285 284 284 285 287 287 288 288 290 291 291 291 292 294 296 295 295 295 294 294 294 292 291 292 293
283 284 283 283 284 284 285 287 288 289 289 290 289 291 293 294 292 294 295 293 292 291 292 292 291 290 292

GFSFLT2_925_thetae_117.txt.gz
Theta_e
306 306 308 307 312 318 323 323 324 325 325 324 323 323 325 325 325 325 324 323 324 324 323 324 322 320 317
302 303 304 306 307 310 315 321 323 325 325 324 324 324 324 324 324 324 323 323 323 323 323 324 322 318 315
298 299 302 303 305 308 309 311 314 316 320 322 323 322 323 323 323 322 322 322 322 322 323 324 322 318 315
296 297 298 299 301 304 305 306 307 309 311 313 316 317 319 320 321 321 321 321 321 321 323 323 321 316 313
294 295 295 297 296 297 298 299 301 308 310 311 312 312 314 316 316 317 317 318 319 320 322 322 319 314 312
292 292 292 292 293 294 295 296 299 304 301 303 306 308 310 312 313 314 315 316 317 318 321 318 314 312 310
289 288 289 289 290 291 292 293 294 296 296 299 302 305 308 310 311 313 314 316 317 316 314 315 313 310 308
288 288 288 289 289 289 290 290 292 293 294 299 302 304 306 308 309 311 313 314 312 313 315 314 312 309 308
289 289 288 288 288 289 289 290 291 291 293 296 299 302 305 307 308 310 311 312 314 315 314 311 310 309 307
288 286 286 287 287 288 289 290 290 291 294 294 298 299 300 304 306 308 308 308 311 313 311 311 308 304 303
286 286 286 286 286 286 287 288 287 288 289 291 293 293 297 299 301 305 305 306 306 307 309 308 305 305 303
286 286 286 286 286 286 285 285 286 286 286 287 289 292 293 294 296 300 303 304 304 304 303 302 303 303 302
286 286 285 285 286 285 284 284 285 286 286 287 288 290 292 293 295 297 300 301 303 302 301 301 299 299 298
285 285 285 285 285 285 284 284 285 286 287 287 288 289 290 291 293 296 298 300 300 300 300 300 299 298 299
285 284 284 284 284 284 283 283 284 286 287 287 287 289 290 291 292 294 297 298 299 299 298 297 296 297 297
284 284 282 282 283 282 283 283 283 284 285 287 288 289 289 290 291 292 295 297 297 298 296 296 294 294 295
283 282 281 282 282 282 282 282 283 284 285 286 288 289 290 290 292 293 293 295 295 295 295 295 294 292 294